Location: Mannheim
(49.4880°N, 8.4650°E)
Time: 17:13:17
(UTC+02:00)

ISS - Pass Details

Date: 27 June 2024
Orbit: 409 x 423 km, 51.6° (Epoch: 22 July)

Event Time Altitude Azimuth Distance (km) Brightness Sun altitude
Exits shadow 03:45:54 17° 191° (S) 1,146 -2.1 -11.1°
Maximum altitude 03:47:43 27° 144° (SE) 843 -2.4 -11.0°
Drops below altitude 10° 03:50:36 10° 85° (E) 1,494 -0.4 -10.7°
Sets 03:52:54 0° 73° (ENE) 2,365 0.9 -10.5°
